Location: Les Thiberg�res
(47.8554°N, 1.0978°W)
Time: 08:24:34
(UTC+00:00)

ATLAS 2AS CENTAUR R/B - Pass Details

Date: 17 February 2020
Orbit: 929 x 1283 km, 63.7° (Epoch: 27 March)

Event Time Altitude Azimuth Distance (km) Brightness Sun altitude
Exits shadow 05:57:51 - 317° (NW) 3,881 5.2 -12.4°
Reaches altitude 10° 05:59:54 10° 323° (NW) 3,233 4.8 -12.1°
Maximum altitude 06:07:10 40° 31° (NNE) 1,697 4.0 -10.9°
Drops below altitude 10° 06:13:55 10° 100° (E) 3,010 6.7 -9.7°
Sets 06:16:43 0° 108° (ESE) 3,912 7.7 -9.3°
